Weather History for Ft. Stewart, GA

Change the Weather History Date:

Friday, January 17, 2014

  Actual Average Record
Temperature  
Mean Temperature 46 °F -  
Max Temperature 64 °F 62 °F 76 °F (1974)
Min Temperature 28 °F 37 °F 16 °F (1977)
Degree Days  
Heating Degree Days 19    
Moisture  
Dew Point 35 °F    
Average Humidity 66    
Maximum Humidity 95    
Minimum Humidity 29    
Precipitation  
Precipitation 0.00 in - - ()
Sea Level Pressure  
Sea Level Pressure 30.05 in    
Wind  
Wind Speed 4 mph (SW)    
Max Wind Speed 16 mph    
Max Gust Speed 23 mph    
Visibility 10 miles    
Events Rain    
Averages and records for this station are not official NWS values.
T = Trace of Precipitation, MM = Missing Value Source: NWS Daily Summary

Daily Weather History Graph

Daily Weather History Graph

Search for Another Location

Airport:

Trip Planner

Search our weather history database for the weather conditions in past years. The results will help you decide how hot, cold, wet, or windy it might be!

Date:

Astronomy

Jan. 17, 2014 Rise Set
Actual Time 7:26 AM EST 5:46 PM EST
Civil Twilight 7:00 AM EST 6:12 PM EST
Nautical Twilight 6:30 AM EST 6:42 PM EST
Astronomical Twilight 6:00 AM EST 7:12 PM EST
Moon 7:23 PM EST (1/17) 8:01 AM EST (1/17)
Length of Visible Light 11h 12m
Length of Day
10h 20m
Full, 98% of the Moon is Illuminated
Jan 17
Full
Jan 24
Last Quarter
Jan 30
New
Feb 6
First Quarter
Feb 14
Full

Hourly Weather History & Observations

Time (EST) Temp. Windchill Dew Point Humidity Pressure Visibility Wind Dir Wind Speed Gust Speed Precip Events Conditions
12:58 AM 32.2 °F - 27.3 °F 82% 30.13 in 10.0 mi Calm Calm - N/A   Clear
1:58 AM 30.9 °F - 27.7 °F 88% 30.13 in 10.0 mi Calm Calm - N/A   Clear
2:58 AM 30.2 °F - 27.7 °F 90% 30.12 in 10.0 mi Calm Calm - N/A   Clear
3:58 AM 29.5 °F - 27.7 °F 93% 30.11 in 10.0 mi Calm Calm - N/A   Clear
4:58 AM 29.3 °F - 27.1 °F 92% 30.11 in 10.0 mi Calm Calm - N/A   Clear
5:58 AM 28.8 °F - 27.0 °F 93% 30.11 in 10.0 mi Calm Calm - N/A   Clear
6:58 AM 29.1 °F - 27.7 °F 94% 30.11 in 10.0 mi Calm Calm - N/A   Clear
7:58 AM 29.8 °F - 28.6 °F 95% 30.11 in 10.0 mi Calm Calm - N/A   Clear
8:58 AM 38.1 °F - 31.6 °F 77% 30.12 in 10.0 mi WSW 2.3 mph - N/A   Clear
9:32 AM 44.6 °F 40.2 °F 35.6 °F 71% 30.11 in 10.0 mi SW 8.1 mph - N/A   Partly Cloudy
9:39 AM 46.4 °F 41.5 °F 35.6 °F 66% 30.11 in 10.0 mi SW 10.4 mph - N/A   Partly Cloudy
9:58 AM 46.8 °F - 36.5 °F 67% 30.13 in 10.0 mi SW 10.4 mph - 0.00 in   Partly Cloudy
10:58 AM 53.4 °F - 40.5 °F 61% 30.11 in 10.0 mi SW 4.6 mph - N/A   Clear
11:58 AM 58.5 °F - 43.2 °F 57% 30.07 in 10.0 mi SW 9.2 mph - N/A   Clear
12:58 PM 61.7 °F - 43.9 °F 52% 30.03 in 10.0 mi SW 11.5 mph - N/A   Clear
1:58 PM 63.3 °F - 42.6 °F 47% 30.00 in 10.0 mi SSW 11.5 mph - N/A   Clear
2:58 PM 64.6 °F - 41.9 °F 44% 29.99 in 10.0 mi WSW 13.8 mph 19.6 mph N/A   Clear
3:58 PM 63.9 °F - 39.6 °F 41% 29.98 in 10.0 mi WSW 16.1 mph 21.9 mph N/A   Partly Cloudy
4:58 PM 63.0 °F - 38.5 °F 40% 29.97 in 10.0 mi SW 16.1 mph 23.0 mph N/A   Clear
5:58 PM 60.1 °F - 37.8 °F 44% 29.96 in 10.0 mi SSW 6.9 mph - N/A   Scattered Clouds
6:58 PM 56.8 °F - 38.1 °F 50% 29.96 in 10.0 mi South 4.6 mph - N/A   Clear
7:58 PM 54.1 °F - 40.6 °F 60% 29.97 in 10.0 mi NNW 1.2 mph - N/A   Mostly Cloudy
8:58 PM 52.3 °F - 43.0 °F 70% 29.98 in 10.0 mi West 5.8 mph - N/A   Overcast
9:21 PM 53.6 °F - 41.0 °F 62% 29.97 in 10.0 mi SW 5.8 mph - N/A Rain Light Rain
9:38 PM 51.8 °F - 42.8 °F 71% 29.97 in 10.0 mi SW 9.2 mph - N/A   Overcast
9:58 PM 53.6 °F - 42.8 °F 67% 30.00 in 10.0 mi West 9.2 mph - 0.00 in   Mostly Cloudy
10:58 PM 51.8 °F - 27.1 °F 39% 30.03 in 10.0 mi West 15.0 mph 23.0 mph N/A   Partly Cloudy
11:58 PM 49.3 °F - 17.8 °F 29% 30.04 in 10.0 mi West 11.5 mph 20.7 mph N/A   Clear